�N����,����,�~����,�C��,���x,�C��,����,���ϕ���,�ő�u�ԕ���,�ő厞����,���˗�,�I�_���x,�n�����x,�ő啗���N��,DTYPE
"22/07/13","00:10",0.0,22.8,93.7,1001.2,302.2,1.3,2.1,311.1,0.00,21.8,25.3,"00:04:00",1
"22/07/13","00:20",0.0,22.7,93.9,1001.5,308.6,1.3,2.1,331.6,0.00,21.7,25.4,"00:16:32",1
"22/07/13","00:30",0.0,22.6,94.0,1001.5,311.1,1.5,2.4,317.4,0.00,21.6,25.2,"00:26:32",1
"22/07/13","00:40",0.0,22.5,94.1,1001.2,313.7,1.0,1.8,302.3,0.00,21.5,25.3,"00:30:16",1
"22/07/13","00:50",0.0,22.4,94.1,1001.2,321.3,1.2,1.7,323.1,0.00,21.4,25.1,"00:48:56",1
"22/07/13","01:00",0.0,22.3,94.2,1001.0,296.0,1.3,2.0,335.4,0.00,21.4,25.2,"00:58:24",1
"22/07/13","01:10",0.0,22.3,94.4,1000.8,314.1,1.7,3.1,320.3,0.00,21.4,25.3,"01:07:36",1
"22/07/13","01:20",0.0,22.3,94.4,1001.2,321.8,1.7,3.5,350.9,0.00,21.4,25.1,"01:10:48",1
"22/07/13","01:30",0.0,22.4,94.5,1001.0,330.2,1.5,2.8,348.0,0.00,21.5,25.1,"01:20:02",1
"22/07/13","01:40",0.0,22.4,94.6,1000.8,337.6,2.0,3.2,343.0,0.00,21.5,25.3,"01:32:16",1
"22/07/13","01:50",0.0,22.4,94.6,1001.0,330.6,1.3,2.5,332.9,0.00,21.5,25.2,"01:40:24",1
"22/07/13","02:00",0.0,22.3,94.6,1000.5,326.8,1.6,2.5,333.2,0.00,21.4,25.2,"01:59:28",1
"22/07/13","02:10",0.0,22.3,94.7,1000.3,325.7,2.0,2.9,341.6,0.00,21.4,25.1,"02:07:04",1
"22/07/13","02:20",0.0,22.3,94.7,1000.3,309.3,1.5,2.5,309.7,0.00,21.4,24.8,"02:12:16",1
"22/07/13","02:30",0.0,22.3,94.7,1000.5,321.3,1.6,2.5,323.9,0.00,21.4,24.9,"02:20:08",1
"22/07/13","02:40",0.0,22.3,94.7,1000.5,332.2,1.8,2.9,331.3,0.00,21.4,25.1,"02:30:08",1
"22/07/13","02:50",0.0,22.3,94.7,1000.8,332.1,1.3,2.6,319.6,0.00,21.4,24.9,"02:42:48",1
"22/07/13","03:00",0.0,22.3,94.7,1000.5,306.8,0.8,1.3,346.4,0.00,21.4,25.0,"02:50:56",1
"22/07/13","03:10",0.0,22.2,94.7,1000.3,308.0,1.5,2.4,336.6,0.00,21.3,24.8,"03:09:52",1
"22/07/13","03:20",0.0,22.2,94.7,1000.5,332.1,1.1,2.1,329.8,0.00,21.3,24.8,"03:10:24",1
"22/07/13","03:30",0.0,21.9,94.7,1000.5,304.2,1.1,1.4,315.2,0.00,21.1,24.9,"03:26:56",1
"22/07/13","03:40",0.0,21.9,94.7,1000.5,326.3,1.5,2.6,319.7,0.00,21.1,24.9,"03:34:32",1
"22/07/13","03:50",0.0,22.1,94.8,1000.5,334.0,2.3,4.7,342.5,0.00,21.3,24.7,"03:46:24",1
"22/07/13","04:00",0.0,22.1,94.8,1000.8,331.9,2.0,3.1,339.2,0.00,21.3,24.7,"03:58:00",1
"22/07/13","04:10",0.0,22.1,94.7,1000.8,335.9,2.0,3.4,322.5,0.00,21.2,24.7,"04:05:04",1
"22/07/13","04:20",0.0,22.2,94.7,1000.3,342.2,1.5,2.5,357.8,0.00,21.3,24.7,"04:11:28",1
"22/07/13","04:30",0.0,22.1,94.7,1000.3,339.7,1.2,2.0,349.2,0.00,21.2,24.8,"04:20:08",1
"22/07/13","04:40",0.0,22.1,94.6,1000.3,335.4,2.1,3.7,331.4,0.00,21.2,24.9,"04:39:20",1
"22/07/13","04:50",0.0,22.1,94.6,1000.5,326.5,2.2,4.2,344.0,0.00,21.2,24.8,"04:41:20",1
"22/07/13","05:00",0.0,21.9,94.5,1000.3,322.9,1.8,2.8,344.4,0.00,21.0,24.7,"04:52:48",1
"22/07/13","05:10",0.0,21.7,94.6,1000.8,322.1,1.2,2.5,325.1,0.00,20.8,24.6,"05:01:44",1
"22/07/13","05:20",0.0,21.5,94.6,1001.0,315.6,0.8,1.9,309.1,0.00,20.6,24.7,"05:10:02",1
"22/07/13","05:30",0.0,21.5,94.7,1000.8,330.7,1.3,2.0,329.2,0.00,20.7,24.7,"05:20:16",1
"22/07/13","05:40",0.0,21.4,94.7,1001.2,297.1,1.2,1.6,321.6,0.00,20.6,24.7,"05:37:28",1
"22/07/13","05:50",0.0,21.4,94.8,1001.0,332.4,1.5,1.9,330.0,0.00,20.6,24.6,"05:48:48",1
"22/07/13","06:00",0.0,21.5,94.9,1001.5,336.0,1.7,2.5,344.4,0.00,20.7,24.6,"05:55:04",1
"22/07/13","06:10",0.0,21.7,94.9,1001.0,341.2,1.3,2.5,340.1,0.00,20.9,24.7,"06:07:52",1
"22/07/13","06:20",0.0,21.9,94.9,1001.0,340.3,1.6,3.6,350.2,0.00,21.1,24.5,"06:14:24",1
"22/07/13","06:30",0.0,22.1,94.9,1001.0,339.0,1.3,2.5,345.2,0.02,21.3,24.3,"06:27:04",1
"22/07/13","06:40",0.0,22.3,94.7,1001.0,336.5,2.2,3.9,348.4,0.03,21.4,24.3,"06:38:16",1
"22/07/13","06:50",0.0,22.6,94.6,1001.0,336.5,2.1,3.2,319.5,0.04,21.7,24.4,"06:43:28",1
"22/07/13","07:00",0.0,22.9,94.2,1000.8,334.1,2.1,3.3,342.8,0.06,22.0,24.4,"06:54:56",1
"22/07/13","07:10",0.0,23.3,93.9,1001.2,337.5,1.5,2.8,342.8,0.07,22.3,24.5,"07:01:12",1
"22/07/13","07:20",0.0,23.8,93.4,1001.0,318.8,1.5,2.5,341.5,0.10,22.7,24.4,"07:14:24",1
"22/07/13","07:30",0.0,23.6,92.8,1001.2,323.8,1.3,2.8,318.1,0.05,22.4,24.4,"07:20:48",1
"22/07/13","07:40",0.0,23.7,92.5,1001.2,344.8,1.3,2.2,336.4,0.04,22.5,24.5,"07:31:28",1
"22/07/13","07:50",0.0,24.5,92.0,1000.5,282.5,0.7,1.8,251.7,0.16,23.2,24.3,"07:45:52",1
"22/07/13","08:00",0.0,25.3,90.9,1000.5,229.3,0.6,1.3,340.3,0.19,23.7,24.5,"07:51:12",1
"22/07/13","08:10",0.0,25.6,89.0,1000.0,266.6,0.5,1.3,188.4,0.23,23.7,24.5,"08:03:04",1
"22/07/13","08:20",0.0,26.4,86.7,1000.0,222.4,0.5,1.3,240.1,0.24,24.0,24.4,"08:13:12",1
"22/07/13","08:30",0.0,26.3,84.1,999.8,199.0,0.5,1.3,237.8,0.13,23.4,24.5,"08:23:04",1
"22/07/13","08:40",0.0,27.0,82.3,999.3,222.7,0.5,1.9,352.0,0.26,23.8,24.4,"08:38:08",1
"22/07/13","08:50",0.0,27.0,81.3,999.1,186.4,1.0,1.9,193.5,0.22,23.6,24.5,"08:47:12",1
"22/07/13","09:00",0.0,27.6,78.2,999.6,133.2,0.8,2.0,198.8,0.35,23.5,24.4,"08:58:16",1
"22/07/13","09:10",0.0,28.6,75.7,999.6,133.4,0.7,1.7,220.8,0.38,23.9,24.5,"09:00:02",1
"22/07/13","09:20",0.0,29.3,73.5,1000.0,148.6,1.1,1.9,131.8,0.42,24.1,24.7,"09:15:20",1
"22/07/13","09:30",0.0,29.5,70.4,1000.5,203.7,1.1,2.5,220.2,0.47,23.6,24.5,"09:25:20",1
"22/07/13","09:40",0.0,28.7,71.4,1000.5,272.8,1.1,3.3,355.2,0.22,23.1,24.4,"09:38:00",1
"22/07/13","09:50",0.0,27.6,74.4,999.8,328.5,2.1,3.5,309.1,0.21,22.7,24.3,"09:46:32",1
"22/07/13","10:00",0.0,27.8,75.6,999.6,301.9,1.2,3.4,341.2,0.22,23.1,24.7,"09:52:32",1
"22/07/13","10:10",0.0,27.6,75.1,999.6,294.8,1.7,5.6,242.2,0.21,22.8,24.6,"10:01:20",1
"22/07/13","10:20",0.0,28.1,74.9,999.6,276.1,1.0,2.6,348.2,0.23,23.3,24.6,"10:14:24",1
"22/07/13","10:30",0.0,28.3,73.9,999.3,287.4,1.5,3.5,359.3,0.34,23.2,24.8,"10:21:36",1
"22/07/13","10:40",0.0,28.2,73.0,999.6,311.0,1.8,4.4,330.7,0.30,22.9,24.7,"10:39:20",1
"22/07/13","10:50",0.0,28.2,72.7,999.6,304.4,1.6,3.4,322.1,0.30,22.9,25.0,"10:47:28",1
"22/07/13","11:00",0.0,27.8,73.8,999.3,321.0,2.2,6.6,338.4,0.26,22.7,24.6,"10:50:16",1
"22/07/13","11:10",0.0,27.2,75.9,998.9,295.3,1.8,4.0,275.5,0.23,22.6,24.9,"11:02:40",1
"22/07/13","11:20",0.0,26.3,78.5,998.9,293.5,2.2,5.5,350.5,0.19,22.3,25.1,"11:16:00",1
"22/07/13","11:30",0.0,26.3,79.8,998.9,307.7,2.2,5.4,312.4,0.21,22.6,24.8,"11:25:36",1
"22/07/13","11:40",0.0,26.5,79.8,998.9,302.1,2.1,5.0,329.6,0.19,22.8,24.7,"11:35:52",1
"22/07/13","11:50",0.0,26.7,79.6,999.3,307.0,2.5,5.4,333.3,0.23,22.9,25.0,"11:47:12",1
"22/07/13","12:00",0.0,26.8,79.4,999.1,309.6,2.2,3.9,316.2,0.27,23.0,24.7,"11:56:08",1
"22/07/13","12:10",0.0,26.8,79.3,998.6,314.6,2.5,5.8,243.1,0.23,23.0,25.0,"12:02:56",1
"22/07/13","12:20",0.0,27.2,79.1,998.4,302.0,2.2,4.3,298.6,0.26,23.3,24.9,"12:11:04",1
"22/07/13","12:30",0.0,27.5,77.9,998.4,299.1,2.0,5.1,2.5,0.27,23.3,24.8,"12:20:24",1
"22/07/13","12:40",0.0,27.7,77.1,998.6,290.8,2.0,4.1,261.4,0.26,23.4,25.0,"12:34:00",1
"22/07/13","12:50",0.0,28.2,75.6,998.9,322.6,2.0,4.2,344.7,0.31,23.5,25.0,"12:43:12",1
"22/07/13","13:00",0.0,28.5,74.2,998.9,285.5,1.5,3.6,253.1,0.30,23.5,25.0,"12:50:40",1
"22/07/13","13:10",0.0,28.7,73.0,999.1,273.5,1.6,3.7,232.0,0.32,23.4,25.2,"13:08:16",1
"22/07/13","13:20",0.0,29.4,73.1,999.1,278.5,1.2,3.2,271.8,0.41,24.1,25.0,"13:19:28",1
"22/07/13","13:30",0.0,29.5,71.9,999.3,266.6,1.5,4.3,230.6,0.36,23.9,25.0,"13:21:44",1
"22/07/13","13:40",0.0,29.5,71.1,999.3,240.8,2.1,3.9,227.9,0.38,23.7,24.8,"13:35:04",1
"22/07/13","13:50",0.0,30.3,67.7,999.6,251.6,2.0,4.8,216.1,0.51,23.7,25.2,"13:42:40",1
"22/07/13","14:00",0.0,30.5,68.3,999.6,284.9,1.7,4.1,229.0,0.40,24.0,25.2,"13:56:16",1
"22/07/13","14:10",0.0,29.5,67.2,999.6,325.0,2.3,4.1,332.0,0.18,22.8,24.9,"14:05:04",1
"22/07/13","14:20",0.0,29.1,67.8,999.1,358.2,2.1,4.4,341.1,0.18,22.6,25.1,"14:12:40",1
"22/07/13","14:30",0.0,28.4,69.2,998.6,352.6,2.8,5.8,6.9,0.16,22.3,25.3,"14:28:56",1
"22/07/13","14:40",0.0,28.7,71.0,998.4,346.2,2.1,4.0,335.5,0.23,23.0,25.0,"14:36:48",1
"22/07/13","14:50",0.0,29.0,70.0,998.4,2.1,2.1,4.7,351.3,0.20,23.0,25.3,"14:47:44",1
"22/07/13","15:00",0.0,29.0,70.9,998.2,347.6,1.3,2.8,350.7,0.17,23.2,25.3,"14:56:40",1
"22/07/13","15:10",0.0,29.2,70.5,998.4,334.7,1.3,3.1,351.9,0.21,23.3,25.1,"15:01:12",1
"22/07/13","15:20",0.0,29.8,67.6,998.6,347.3,2.0,4.4,3.4,0.26,23.2,25.1,"15:15:12",1
"22/07/13","15:30",0.0,29.9,67.2,998.6,348.1,2.0,4.4,334.2,0.27,23.2,25.3,"15:28:24",1
"22/07/13","15:40",0.0,30.1,67.6,998.6,358.8,1.5,3.6,352.7,0.22,23.5,25.3,"15:31:36",1
"22/07/13","15:50",0.0,29.7,67.1,998.2,10.3,1.8,3.2,22.4,0.16,23.0,25.2,"15:49:52",1
"22/07/13","16:00",0.0,29.2,68.4,998.2,356.6,2.0,4.3,330.1,0.13,22.8,25.3,"15:58:48",1
"22/07/13","16:10",0.0,28.8,69.9,998.2,342.5,2.2,4.1,342.2,0.12,22.8,25.4,"16:05:20",1
"22/07/13","16:20",0.0,28.2,70.2,997.9,352.7,2.6,5.7,335.0,0.08,22.3,25.4,"16:18:40",1
"22/07/13","16:30",0.0,28.2,72.4,997.0,323.4,2.2,3.7,337.2,0.07,22.8,25.4,"16:23:04",1
"22/07/13","16:40",0.0,27.7,75.4,997.0,289.0,1.7,4.0,254.0,0.07,23.0,25.3,"16:38:56",1
"22/07/13","16:50",0.0,27.2,77.5,997.0,288.5,1.5,3.3,349.2,0.07,23.0,25.4,"16:45:04",1
"22/07/13","17:00",0.0,26.9,79.1,997.7,286.1,1.8,4.2,344.5,0.07,23.0,25.4,"16:54:56",1
"22/07/13","17:10",0.0,26.9,80.5,997.7,289.0,1.6,3.3,290.0,0.07,23.3,25.7,"17:07:04",1
"22/07/13","17:20",0.0,27.1,80.5,997.2,310.2,2.1,5.9,344.2,0.12,23.5,25.4,"17:19:36",1
"22/07/13","17:30",0.0,27.1,80.0,997.2,320.6,2.0,3.7,345.5,0.10,23.4,25.4,"17:27:20",1
"22/07/13","17:40",0.0,27.1,80.1,997.4,314.4,1.8,4.4,346.5,0.07,23.4,25.5,"17:30:16",1
"22/07/13","17:50",0.0,27.0,79.0,997.7,329.4,1.7,3.3,325.3,0.06,23.1,25.5,"17:48:32",1
"22/07/13","18:00",0.0,27.3,78.1,997.4,333.4,1.7,3.1,338.5,0.06,23.2,25.4,"17:59:04",1
"22/07/13","18:10",0.0,27.3,76.6,997.2,333.5,2.0,5.0,328.1,0.06,22.9,25.3,"18:03:36",1
"22/07/13","18:20",0.0,27.3,75.5,997.0,330.5,2.2,4.9,327.5,0.05,22.6,25.2,"18:15:52",1
"22/07/13","18:30",0.0,27.1,75.6,997.2,333.5,2.0,4.0,330.7,0.04,22.5,25.2,"18:28:32",1
"22/07/13","18:40",0.0,27.2,76.6,997.2,335.1,1.5,2.7,334.9,0.02,22.8,25.2,"18:39:20",1
"22/07/13","18:50",0.0,26.9,77.1,997.4,333.7,1.3,2.6,336.9,0.02,22.6,25.3,"18:47:12",1
"22/07/13","19:00",0.0,26.5,77.8,997.7,340.3,1.7,2.9,344.8,0.01,22.3,25.4,"18:57:20",1
"22/07/13","19:10",0.0,26.2,77.9,997.7,349.5,1.6,2.9,347.5,0.00,22.1,25.2,"19:03:52",1
"22/07/13","19:20",0.0,26.1,78.1,997.7,348.7,1.5,2.8,341.8,0.00,22.0,25.5,"19:11:20",1
"22/07/13","19:30",0.0,25.9,78.8,997.9,346.5,1.3,2.8,342.7,0.00,22.0,25.3,"19:22:24",1
"22/07/13","19:40",0.0,25.8,79.5,997.7,350.1,1.3,2.2,346.8,0.00,22.0,25.4,"19:35:20",1
"22/07/13","19:50",0.0,25.5,80.5,997.9,338.3,1.5,2.6,343.1,0.00,21.9,25.4,"19:49:52",1
"22/07/13","20:00",0.0,25.3,81.2,998.2,342.1,1.5,2.2,318.8,0.00,21.9,25.3,"19:50:32",1
"22/07/13","20:10",0.0,25.2,81.7,998.9,352.0,1.0,1.9,355.4,0.00,21.9,25.4,"20:01:12",1
"22/07/13","20:20",0.0,25.0,82.3,998.6,347.4,0.8,1.7,359.7,0.00,21.8,25.4,"20:14:48",1
"22/07/13","20:30",0.0,25.0,82.7,998.9,341.6,1.0,1.8,334.1,0.00,21.9,25.3,"20:20:48",1
"22/07/13","20:40",0.0,24.8,83.3,998.6,324.9,1.1,1.9,326.6,0.00,21.8,25.2,"20:39:36",1
"22/07/13","20:50",0.0,24.6,84.1,998.9,318.2,0.8,1.4,339.9,0.00,21.8,25.2,"20:49:52",1
"22/07/13","21:00",0.0,24.5,84.9,998.9,343.5,1.2,1.7,345.0,0.00,21.8,25.2,"20:51:12",1
"22/07/13","21:10",0.0,24.3,85.7,999.3,335.3,1.1,1.4,347.8,0.00,21.8,25.0,"21:00:16",1
"22/07/13","21:20",0.0,24.1,86.2,999.6,355.4,0.7,1.3,2.6,0.00,21.7,25.1,"21:12:48",1
"22/07/13","21:30",0.0,24.1,86.6,999.1,334.7,1.0,1.7,354.9,0.00,21.8,25.3,"21:26:32",1
"22/07/13","21:40",0.0,24.1,87.2,999.1,333.3,1.3,2.0,343.4,0.00,21.9,25.2,"21:38:16",1
"22/07/13","21:50",0.0,23.7,87.8,998.9,325.7,1.3,1.9,349.5,0.00,21.6,25.2,"21:42:00",1
"22/07/13","22:00",0.0,23.7,88.2,999.1,329.6,1.2,1.9,332.4,0.00,21.7,25.0,"21:59:20",1
"22/07/13","22:10",0.0,23.6,88.4,999.6,314.9,1.6,2.7,339.8,0.00,21.6,25.2,"22:02:56",1
"22/07/13","22:20",0.0,23.5,88.6,999.6,320.9,1.5,2.1,331.1,0.00,21.5,25.2,"22:14:48",1
"22/07/13","22:30",0.0,23.6,88.6,999.1,309.7,1.3,2.2,336.7,0.00,21.6,25.1,"22:27:44",1
"22/07/13","22:40",0.0,23.5,88.6,999.3,296.9,0.5,1.2,314.9,0.00,21.5,25.0,"22:30:08",1
"22/07/13","22:50",0.0,23.5,88.6,998.9,295.8,1.2,2.2,322.0,0.00,21.5,24.9,"22:44:16",1
"22/07/13","23:00",0.0,23.5,88.7,998.6,277.4,1.1,1.6,250.5,0.00,21.6,24.9,"22:56:16",1
"22/07/13","23:10",0.0,23.4,88.7,998.9,265.1,1.1,1.8,254.1,0.00,21.5,24.7,"23:07:36",1
"22/07/13","23:20",0.0,23.4,88.7,998.9,291.1,1.2,1.8,304.5,0.00,21.5,25.1,"23:13:52",1
"22/07/13","23:30",0.0,23.4,88.7,998.9,292.2,1.2,2.0,312.2,0.00,21.5,24.9,"23:20:32",1
"22/07/13","23:40",0.0,23.4,88.6,998.6,292.6,1.3,1.7,306.6,0.00,21.4,25.0,"23:32:24",1
"22/07/13","23:50",0.0,23.4,88.6,998.9,317.9,1.3,2.6,325.9,0.00,21.4,24.9,"23:40:56",1
"22/07/13","24:00",0.0,23.3,88.6,998.6,324.0,1.6,2.4,336.9,0.00,21.4,24.8,"23:51:20",1
